Location: Arrodets-la-Barthe
(43.0306°N, 0.2829°E)
Time: 02:31:32
(UTC+00:00)

BlueWalker 3 - Pass Details

Date: 06 December 2022
Orbit: 499 x 517 km, 53.2° (Epoch: 03 February)

Event Time Altitude Azimuth Distance (km) Brightness Sun altitude
Rises 18:04:37 0° 308° (NW) 2,627 6.1 -17.7°
Reaches altitude 10° 18:07:02 10° 319° (NW) 1,735 5.0 -18.2°
Enters shadow 18:10:20 29° 16° (NNE) 946 3.0 -18.8°
